Location: Yoder Observing Site
(32.2942°N, 83.9813°W)
Time: 19:29:04
(UTC-05:00)

N. Korean satellite - Visible Passes

Search period start: 21 January 2018 00:00
Search period end: 31 January 2018 00:00
Orbit: 458 x 515 km, 97.2° (Epoch: 20 January)

Date Brightness Start Highest point End Pass type
(mag) Time Alt. Az. Time Alt. Az. Time Alt. Az.
21 Jan 9.7 06:28:44 10° NE 06:31:04 17° E 06:33:23 10° SE visible
21 Jan 6.5 18:32:25 10° SSE 18:36:01 73° ENE 18:39:35 10° N visible
22 Jan 10.3 19:45:14 10° WSW 19:45:58 10° W 19:46:42 10° W visible
23 Jan 9.3 19:19:21 10° SSW 19:22:12 22° W 19:25:01 10° NW visible
24 Jan 8.3 06:50:23 10° NNE 06:53:36 36° E 06:56:49 10° SSE visible
24 Jan 7.6 18:55:01 10° S 18:58:29 48° W 19:01:55 10° NNW visible
25 Jan 9.8 06:27:33 10° NE 06:29:51 17° E 06:32:09 10° SE visible
25 Jan 6.5 18:31:17 10° SSE 18:34:50 71° ENE 18:38:20 10° N visible
26 Jan 10.3 19:43:58 10° WSW 19:44:46 11° W 19:45:34 10° W visible
27 Jan 9.3 19:18:08 10° SSW 19:20:59 22° W 19:23:48 10° NW visible
28 Jan 8.4 06:49:09 10° NNE 06:52:22 35° E 06:55:36 10° SSE visible
28 Jan 7.6 18:53:48 10° S 18:57:15 49° W 19:00:40 10° NNW visible
29 Jan 9.8 06:26:19 10° NE 06:28:36 16° E 06:30:54 10° SE visible
29 Jan 6.4 18:30:05 10° SSE 18:33:35 68° ENE 18:37:04 10° N visible
30 Jan 10.3 19:42:37 10° WSW 19:43:30 11° W 19:44:23 10° W visible
